Regional Weather Roundup
Issued by NWS

Home | Current Version | Previous Version | Graphics & Text | Print | Product List | Glossary On
Versions: 1 2 3 4 5 6 7 8 9 10 11 12 13 14 15 16 17 18 19 20 21 22 23 24 25 26 27 28 29 30 31 32 33 34 35 36 37 38 39 40 41 42 43 44 45 46 47 48 49 50
630
ASUS45 KBOU 250307
RWRCO

WEATHER ROUNDUP FOR COLORADO
NATIONAL WEATHER SERVICE DENVER/BOULDER CO
900 PM MDT MON APR 24 2017

NOTE: "FAIR" INDICATES FEW OR NO CLOUDS BELOW 12000 FEET WITH NO
SIGNIFICANT WEATHER AND/OR OBSTRUCTIONS TO VISIBILITY.

COZ001>005-013-030-031-250400-
...NORTHWEST COLORADO...

CITY           SKY/WX    TMP DP  RH WIND       PRES   REMARKS
CRAIG          LGT RAIN  36  33  89 VRB3      29.70R
HAYDEN         NOT AVBL
MEEKER         RAIN      41  36  82 W9G30     29.69R
MOUNT WERNER   NOT AVBL
STEAMBOAT SPGS CLOUDY    37  35  92 W12       29.68R
WALDEN           N/A     36  32  87 SW10      29.68R
$$

COZ006>008-011-250400-
...WEST CENTRAL VALLEYS...

CITY           SKY/WX    TMP DP  RH WIND       PRES   REMARKS
GRAND JUNCTION CLOUDY    59  34  39 NW13      29.59R
MONTROSE       FAIR      60  24  25 SW9G17    29.61F
EAGLE          LGT RAIN  49  34  56 W14       29.67R
RIFLE          CLOUDY    52  36  54 NW17G30   29.61R
DELTA          CLOUDY    62  29  28 S6        29.59R
NUCLA          FAIR      59  23  25 S12G17    29.65F
$$

COZ017>023-064>068-250400-
...SOUTHWEST COLORADO...

CITY           SKY/WX    TMP DP  RH WIND       PRES   REMARKS
DURANGO        CLOUDY    50  29  44 SE8       29.75R
CORTEZ         CLOUDY    52  33  48 CALM      29.68R
PAGOSA SPRINGS CLOUDY    48  30  50 S7        29.82F
TELLURIDE      CLOUDY    44  27  52 SE7       29.84S
WOLF CREEK PAS HVY SNOW  27  27 100 S21G36    29.95R VSB 1/4 WCI  13
$$

COZ009-010-012-014-032>034-037-058>063-250400-
...CENTRAL COLORADO...

CITY           SKY/WX    TMP DP  RH WIND       PRES   REMARKS
ASPEN          CLOUDY    47  28  47 S16       29.67S
BUENA VISTA    FAIR      47  25  41 S9        29.69S
COPPER MTN     CLOUDY    34  25  69 MISG      29.81F
BERTHOUD PASS  FAIR      27  14  59 W17G25    29.82R WCI  14
COTTONWOOD PAS FAIR      43  25  49 W24G38    29.74R
GUNNISON       FAIR      46  28  49 SE8       29.72S
KREMMLING      DRIZZLE   50  32  50 SW17G29   29.64R
LEADVILLE      MOCLDY    36  23  59 SE14      29.75R
MONARCH PASS   LGT SNOW  28  27  93 SW36      29.94F WCI  12
SALIDA         MOCLDY    50  29  44 E3        29.77S
SUNLIGHT       LGT SNOW  30  28  93 SW25G37   29.76F WCI  16
WILKERSON PASS FAIR      32  21  64 SW10G29   29.83S WCI  24
$$

COZ069>075-250400-
...SAN LUIS VALLEY/SANGRE DE CRISTO MOUNTAINS...

CITY           SKY/WX    TMP DP  RH WIND       PRES   REMARKS
ALAMOSA        MOCLDY    48  28  46 S10       29.76F
LA VETA PASS   CLOUDY    39  25  56 SW21G45   29.93R
SAGUACHE       FAIR      50  27  40 NW16      29.74R
$$

COZ035-036-038>040-250400-
...NORTHERN COLORADO FRONT RANGE...

CITY           SKY/WX    TMP DP  RH WIND       PRES   REMARKS
DENVER INTL AP MOCLDY    50  37  61 N16       29.56R
DMNS CITY PARK   N/A     53  35  51 N10       29.58R
AURORA         MOCLDY    50  35  56 N9        29.58R
FRONT RANGE AP MOCLDY    54  37  54 N14G24    29.56R
ERIE MUNI ARPT MOCLDY    48  41  79 NW5       29.58R
BOULDER MUN AP FAIR      46  41  81 NW3       29.59R
CENTENNIAL     MOCLDY    53  36  52 N9        29.58R
BROOMFIELD     MOCLDY    48  41  76 NW9       29.60R
FORT COLLINS   FAIR      46  43  89 NW3       29.58S
LONGMONT       FAIR      50  42  74 NW6       29.60R
$$

COZ041-046-047-076>085-087-088-250400-
...PIKES PEAK/PALMER DIVIDE AND SOUTHERN FOOTHILLS...

CITY           SKY/WX    TMP DP  RH WIND       PRES   REMARKS
COLO. SPRINGS  CLOUDY    57  37  47 NE7       29.60R
A. F. ACADEMY  FAIR      56  25  30 W5        29.60S
SCHRIEVER AFB  MOCLDY    54  37  52 N13G18    29.60R
ELLICOTT       MOCLDY   N/A N/A N/A E7        29.58R
FALCON         FAIR      51  35  54 CALM      29.64S
FORT CARSON    FAIR      62  25  24 W7G18     29.58R
LIMON          MOCLDY    55  37  50 NE10      29.56S
MONUMENT HILL  FAIR      50  32  50 SE9       29.65R
TRINIDAD       FAIR      63  20  19 W29G35    29.61R
$$

COZ042>045-048>051-090-091-250400-
...NORTHEAST COLORADO...

CITY           SKY/WX    TMP DP  RH WIND       PRES   REMARKS
GREELEY ARPT   FAIR      49  43  80 NE10      29.57F
AKRON          MOCLDY    48  42  80 E10       29.58F
BURLINGTON     NOT AVBL
WRAY           NOT AVBL
STERLING       CLOUDY    54  43  66 S3        29.58R
HOLYOKE        FAIR      61  37  41 SE15      29.59R
FORT MORGAN    CLOUDY    51  40  66 NE14      29.58S
$$

COZ086-089-092>099-250400-
...SOUTHEAST COLORADO...

CITY           SKY/WX    TMP DP  RH WIND       PRES   REMARKS
PUEBLO         FAIR      64  31  28 W9        29.51R
LA JUNTA       FAIR      70  27  20 SW17      29.48S
LAMAR          FAIR      68  39  34 SE14      29.47R
SPRINGFIELD      N/A     61  39  44 N13       29.53R
$$




USA.gov is the U.S. government's official web portal to all federal, state and local government web resources and services.